Weather History for Lubbock, TX

Change the Weather History Date:

Saturday, June 29, 2013

  Actual Average Record
Temperature  
Mean Temperature 83 °F 80 °F  
Max Temperature 99 °F 92 °F 107 °F (1957)
Min Temperature 66 °F 67 °F 57 °F (1948)
Degree Days  
Heating Degree Days 0 0  
Month to date heating degree days 0 0  
Since 1 June heating degree days 0 0  
Since 1 July heating degree days 3208 3377  
Cooling Degree Days 18 15  
Month to date cooling degree days 461 360  
Year to date cooling degree days 776 606  
Since 1 June cooling degree days 461 360  
Growing Degree Days 32 (Base 50)    
Moisture  
Dew Point 57 °F    
Average Humidity 40    
Maximum Humidity 58    
Minimum Humidity 22    
Precipitation  
Precipitation 0.17 in 0.09 in 0.67 in (1982)
Month to date precipitation 1.32 2.95  
Year to date precipitation 4.74 9.16  
Snow  
Snow 0.00 in 0.00 in 0.00 in (2002)
Month to date snowfall 0.0 0.0  
Since 1 June snowfall 0.0 0.0  
Since 1 July snowfall 4.1 8.2  
Snow Depth 0.00 in    
Sea Level Pressure  
Sea Level Pressure 29.91 in    
Wind  
Wind Speed 12 mph (ESE)    
Max Wind Speed 41 mph    
Max Gust Speed 56 mph    
Visibility 9 miles    
Events Rain , Thunderstorm    
T = Trace of Precipitation, MM = Missing Value Source: NWS Daily Summary

Daily Weather History Graph

Daily Weather History Graph

Search for Another Location

Airport:

Trip Planner

Search our weather history database for the weather conditions in past years. The results will help you decide how hot, cold, wet, or windy it might be!

Date:

Astronomy

Jun. 29, 2013 Rise Set
Actual Time 6:39 AM CDT 9:01 PM CDT
Civil Twilight 6:10 AM CDT 9:30 PM CDT
Nautical Twilight 5:35 AM CDT 10:06 PM CDT
Astronomical Twilight 4:56 AM CDT 10:45 PM CDT
Moon 12:51 AM CDT 1:31 PM CDT
Length of Visible Light 15h 19m
Length of Day
14h 21m
Waning Gibbous, 55% of the Moon is Illuminated
Jun 29
Waning Gibbous
Jun 29
Last Quarter
Jul 8
New
Jul 15
First Quarter
Jul 22
Full

Hourly Weather History & Observations

Time (CDT) Temp. Heat Index Dew Point Humidity Pressure Visibility Wind Dir Wind Speed Gust Speed Precip Events Conditions
12:53 AM 80.1 °F 80.1 °F 55.0 °F 42% 29.88 in 10.0 mi ESE 8.1 mph - N/A   Clear
1:53 AM 79.0 °F - 54.0 °F 42% 29.86 in 10.0 mi ESE 9.2 mph - N/A   Scattered Clouds
2:53 AM 78.1 °F - 57.0 °F 48% 29.86 in 10.0 mi ESE 9.2 mph - N/A   Mostly Cloudy
3:53 AM 77.0 °F - 57.0 °F 50% 29.87 in 10.0 mi SE 9.2 mph - N/A   Scattered Clouds
4:53 AM 75.9 °F - 57.9 °F 54% 29.88 in 10.0 mi SE 9.2 mph - N/A   Mostly Cloudy
5:53 AM 75.0 °F - 57.9 °F 55% 29.89 in 10.0 mi SE 5.8 mph - N/A   Mostly Cloudy
6:53 AM 75.0 °F - 59.0 °F 57% 29.88 in 10.0 mi SE 9.2 mph - N/A   Mostly Cloudy
7:53 AM 77.0 °F - 61.0 °F 58% 29.90 in 10.0 mi South 5.8 mph - N/A   Mostly Cloudy
8:53 AM 78.1 °F - 63.0 °F 60% 29.93 in 7.0 mi SSE 4.6 mph - 0.00 in Rain Light Rain
8:57 AM 77.0 °F - 64.4 °F 65% 30.15 in 7.0 mi NE 17.3 mph 32.2 mph 0.01 in Rain , Thunderstorm Light Thunderstorms and Rain
9:02 AM 73.4 °F - 62.6 °F 69% 30.15 in 4.0 mi NNE 27.6 mph 44.9 mph 0.01 in Rain , Thunderstorm Light Thunderstorms and Rain
9:06 AM 69.8 °F - 60.8 °F 73% 30.15 in 2.5 mi NNE 41.4 mph 56.4 mph 0.01 in Rain , Thunderstorm Light Thunderstorms and Rain
9:16 AM 66.2 °F - 60.8 °F 83% 30.15 in 2.5 mi NE 33.4 mph 44.9 mph 0.02 in Rain , Thunderstorm Thunderstorms and Rain
9:24 AM 66.2 °F - 60.8 °F 83% 30.17 in 3.0 mi ENE 31.1 mph 46.0 mph 0.05 in Rain , Thunderstorm Thunderstorms and Rain
9:53 AM 66.0 °F - 59.0 °F 78% 30.00 in 4.0 mi ESE 23.0 mph 27.6 mph 0.09 in Rain , Thunderstorm Heavy Thunderstorms and Rain
10:31 AM 69.8 °F - 60.8 °F 73% 30.12 in 10.0 mi SE 18.4 mph - 0.08 in   Mostly Cloudy
10:53 AM 71.1 °F - 60.1 °F 68% 29.96 in 10.0 mi SE 13.8 mph - 0.08 in   Mostly Cloudy
11:53 AM 80.1 °F 80.9 °F 60.1 °F 50% 29.93 in 10.0 mi SSE 15.0 mph - N/A   Mostly Cloudy
12:53 PM 86.0 °F 85.4 °F 59.0 °F 40% 29.89 in 10.0 mi SSE 20.7 mph 27.6 mph N/A   Mostly Cloudy
1:53 PM 91.9 °F 90.0 °F 55.0 °F 29% 29.86 in 10.0 mi SSE 9.2 mph - N/A   Scattered Clouds
2:53 PM 95.0 °F 92.5 °F 53.1 °F 24% 29.84 in 10.0 mi ESE 6.9 mph - N/A   Scattered Clouds
3:53 PM 97.0 °F - 52.0 °F 22% 29.82 in 10.0 mi West 8.1 mph - N/A   Scattered Clouds
4:53 PM 98.1 °F 96.4 °F 55.0 °F 24% 29.79 in 10.0 mi ESE 10.4 mph - N/A   Scattered Clouds
5:53 PM 96.1 °F 94.1 °F 55.0 °F 25% 29.76 in 10.0 mi ESE 11.5 mph - N/A   Scattered Clouds
6:53 PM 93.9 °F 91.7 °F 54.0 °F 26% 29.76 in 10.0 mi East 15.0 mph - N/A   Scattered Clouds
7:53 PM 91.0 °F - 52.0 °F 26% 29.77 in 10.0 mi ESE 18.4 mph - N/A   Mostly Cloudy
8:53 PM 86.0 °F 84.0 °F 53.1 °F 32% 29.78 in 10.0 mi ESE 13.8 mph - N/A   Mostly Cloudy
9:53 PM 84.0 °F 82.9 °F 55.0 °F 37% 29.81 in 10.0 mi ESE 10.4 mph - N/A   Mostly Cloudy
10:53 PM 82.0 °F 81.7 °F 57.0 °F 42% 29.87 in 10.0 mi SE 5.8 mph - N/A   Overcast
11:53 PM 78.1 °F - 54.0 °F 43% 29.91 in 10.0 mi West 12.7 mph 24.2 mph 0.00 in   Overcast